Overview Statistics Trail Chart Weather Telemetry Raw packets
 

This is the latest recevied weather packets stored in our database for station/object KO4ZGL-13. If no packets are shown the sender has not sent any weather packets the latest 10 day(s).

<< 17 18 19 20 21 22 23 >>
Time Temp. Humidity Pressure Rain* Wind** Luminosity Snow
1788529684 30.56° C 84% 1017.6 hPa 0 mm - 119 W/m² -
1788529384 30.56° C 86% 1017.8 hPa 0 mm - 168 W/m² -
1788529079 30° C 89% 1017.8 hPa 0 mm - 387 W/m² -
1788528775 29.44° C 91% 1017.8 hPa 0 mm - 383 W/m² -
1788528474 28.89° C 96% 1017.7 hPa 0 mm - 330 W/m² -
1788528170 27.78° C 98% 1017.7 hPa 0 mm - 372 W/m² -
1788527868 27.22° C 99% 1017.7 hPa 0 mm - 428 W/m² -
1788527565 27.22° C 99% 1017.7 hPa 0 mm - 76 W/m² -
1788527264 27.22° C 99% 1017.7 hPa 0 mm - 66 W/m² -
1788526958 26.67° C 99% 1017.6 hPa 0 mm - 62 W/m² -
1788526654 26.67° C 99% 1017.5 hPa 0 mm - 60 W/m² -
1788526363 26.11° C 99% 1017.6 hPa 0 mm - 60 W/m² -
1788526049 26.11° C 99% 1017.9 hPa 0 mm - 58 W/m² -
1788525746 25.56° C 99% 1017.7 hPa 0 mm - 38 W/m² -
1788525440 25° C 99% 1017.5 hPa 0 mm - 34 W/m² -
1788525136 24.44° C 99% 1017.6 hPa 0 mm - 32 W/m² -
1788524836 24.44° C 99% 1017.5 hPa 0 mm - 31 W/m² -
1788524531 23.89° C 99% 1017.6 hPa 0 mm - 31 W/m² -
1788524226 23.89° C 99% 1017.6 hPa 0 mm - 29 W/m² -
1788523921 23.89° C 99% 1017.3 hPa 0 mm - 28 W/m² -
1788523618 23.89° C 99% 1017.4 hPa 0 mm - 26 W/m² -
1788523314 23.33° C 99% 1017.4 hPa 0 mm - 26 W/m² -
1788523009 23.33° C 99% 1017.3 hPa 0 mm - 25 W/m² -
1788522703 23.33° C 99% 1017.5 hPa 0 mm - 23 W/m² -
1788522398 23.33° C 99% 1017.1 hPa 0 mm - 22 W/m² -

* Rain latest hour (hover to see other rain measurements)
** Current wind speed in m/s (hover to see current wind gust speed)